contact:dominique.lefevre@mio.osupytheas.fr, maurice.libes@osupytheas.fr, didier.mallarino@osupytheas.fr
Project:EMSO http://www.emso-fr.org/EMSO-France
Depth: 2436.0 m
Title:EMSO Ligure Ouest : Data MII capteur AQUADOPP
Date,Latitude,Longitude,X_East,Y_North,Z_Up,Amplitude_X,Amplitude_Y,Amplitude_Z,Batterie,SoundSpeed,Heading,Pitch,Roll,Pressure,TIS,Speed,Direction
, degrees North, degrees East, m.s-1, m.s-1,m.s-1, 1, 1, 1, Volt, m.s-1, degree, degree, degree, dbar, degree_C, m.s-1, degree
2020-03-21T00:04:03,42.805,6.029,-0.014,0.032,0.004,103.0,105.0,100.0,13.3,1505.3,327.9,-0.8,1.8,2470.235,13.31,0.034,336.4
2020-03-21T00:07:03,42.805,6.029,-0.007,0.023,-0.001,102.0,106.0,99.0,13.3,1505.3,325.6,-0.7,1.8,2470.194,13.32,0.024,343.1
2020-03-21T00:10:03,42.805,6.029,-0.028,0.031,-0.047,101.0,106.0,100.0,13.4,1505.3,324.2,-0.7,1.8,2470.2,13.32,0.041,317.9
2020-03-21T00:13:03,42.805,6.029,-0.007,0.034,-0.019,103.0,106.0,99.0,13.4,1505.3,327.0,-0.7,1.8,2470.154,13.33,0.034,348.4
2020-03-21T00:16:03,42.805,6.029,-0.023,0.04,-0.037,103.0,106.0,100.0,13.4,1505.3,326.3,-0.7,1.8,2470.169,13.33,0.046,330.1
2020-03-21T00:19:03,42.805,6.029,-0.012,0.021,0.002,101.0,106.0,100.0,13.4,1505.3,323.4,-0.7,1.9,2470.18,13.33,0.024,330.3
2020-03-21T00:22:03,42.805,6.029,-0.049,0.014,-0.084,101.0,108.0,100.0,13.4,1505.3,323.8,-0.7,1.9,2470.176,13.33,0.05,285.9
2020-03-21T00:25:03,42.805,6.029,0.01,0.034,-0.031,103.0,107.0,101.0,13.4,1505.3,327.6,-0.7,1.8,2470.146,13.33,0.035,16.4
2020-03-21T00:28:03,42.805,6.029,-0.013,0.042,-0.022,103.0,105.0,100.0,13.4,1505.3,327.7,-0.8,1.8,2470.153,13.33,0.043,342.8
2020-03-21T00:31:03,42.805,6.029,-0.043,0.026,-0.052,102.0,106.0,101.0,13.4,1505.3,327.2,-0.7,1.8,2470.161,13.33,0.05,301.2
2020-03-21T00:34:03,42.805,6.029,-0.042,0.026,-0.039,103.0,106.0,99.0,13.3,1505.3,324.4,-0.7,1.8,2470.171,13.33,0.049,301.8
2020-03-21T00:37:03,42.805,6.029,-0.012,0.04,-0.041,102.0,106.0,99.0,13.4,1505.3,324.9,-0.7,1.8,2470.156,13.33,0.041,343.3
2020-03-21T00:40:03,42.805,6.029,-0.042,0.018,-0.039,103.0,107.0,100.0,13.4,1505.3,324.5,-0.7,1.8,2470.142,13.33,0.045,293.2
2020-03-21T00:43:03,42.805,6.029,-0.039,0.034,-0.066,101.0,108.0,100.0,13.4,1505.3,323.4,-0.7,1.8,2470.161,13.33,0.051,311.1
2020-03-21T00:46:03,42.805,6.029,-0.024,0.024,0.004,103.0,107.0,98.0,13.3,1505.3,327.9,-0.7,1.8,2470.192,13.33,0.033,315.0
2020-03-21T00:49:03,42.805,6.029,-0.046,0.03,-0.017,103.0,107.0,100.0,13.4,1505.3,324.7,-0.7,1.8,2470.179,13.33,0.054,303.1
2020-03-21T00:52:03,42.805,6.029,-0.025,0.031,-0.044,102.0,107.0,101.0,13.4,1505.3,327.3,-0.7,1.9,2470.159,13.33,0.039,321.1
2020-03-21T00:55:03,42.805,6.029,-0.018,0.028,-0.037,102.0,107.0,99.0,13.3,1505.3,323.3,-0.7,1.8,2470.176,13.33,0.033,327.3
2020-03-21T00:58:03,42.805,6.029,0.003,0.026,-0.016,104.0,107.0,101.0,13.4,1505.3,325.6,-0.7,1.8,2470.156,13.33,0.026,6.6
2020-03-21T01:04:03,42.805,6.029,-0.021,0.038,0.026,103.0,111.0,103.0,13.4,1505.3,324.7,-0.8,1.8,2470.253,13.31,0.043,331.1
2020-03-21T01:07:03,42.805,6.029,-0.018,0.033,-0.02,104.0,107.0,99.0,13.3,1505.3,326.2,-0.7,1.8,2470.199,13.32,0.037,331.4
2020-03-21T01:10:03,42.805,6.029,-0.038,0.041,-0.039,104.0,108.0,101.0,13.4,1505.3,322.9,-0.7,1.8,2470.193,13.32,0.055,317.2
2020-03-21T01:13:03,42.805,6.029,0.001,0.035,0.001,103.0,106.0,102.0,13.4,1505.3,328.5,-0.7,1.8,2470.174,13.32,0.035,1.6
2020-03-21T01:16:03,42.805,6.029,-0.017,0.031,0.011,104.0,107.0,101.0,13.3,1505.3,325.1,-0.7,1.9,2470.188,13.33,0.035,331.3
2020-03-21T01:19:03,42.805,6.029,-0.027,0.031,-0.029,103.0,109.0,100.0,13.3,1505.3,326.8,-0.7,1.8,2470.223,13.33,0.041,318.9
2020-03-21T01:22:03,42.805,6.029,-0.021,0.011,-0.047,105.0,109.0,100.0,13.3,1505.3,323.2,-0.7,1.8,2470.214,13.33,0.023,297.6
2020-03-21T01:25:03,42.805,6.029,-0.017,0.023,-0.015,103.0,108.0,101.0,13.3,1505.3,328.0,-0.7,1.8,2470.157,13.33,0.028,323.5
2020-03-21T01:28:03,42.805,6.029,-0.034,0.061,0.002,103.0,109.0,103.0,13.3,1505.3,326.0,-0.7,1.8,2470.186,13.33,0.069,330.9
2020-03-21T01:31:03,42.805,6.029,-0.014,0.034,-0.025,104.0,109.0,101.0,13.3,1505.3,324.9,-0.7,1.9,2470.223,13.33,0.036,337.6
2020-03-21T01:34:03,42.805,6.029,-0.026,0.037,-0.015,104.0,108.0,101.0,13.4,1505.3,326.0,-0.7,1.9,2470.215,13.33,0.045,324.9
2020-03-21T01:37:03,42.805,6.029,0.006,0.037,-0.005,104.0,109.0,100.0,13.4,1505.3,326.5,-0.7,1.8,2470.19,13.33,0.037,9.2
2020-03-21T01:40:03,42.805,6.029,-0.044,0.025,-0.028,104.0,109.0,101.0,13.4,1505.3,327.8,-0.7,1.8,2470.164,13.33,0.05,299.6
2020-03-21T01:43:03,42.805,6.029,0.021,0.038,-0.018,105.0,109.0,101.0,13.4,1505.3,324.9,-0.7,1.8,2470.206,13.33,0.043,28.9
2020-03-21T01:46:03,42.805,6.029,-0.002,0.026,-0.015,104.0,110.0,101.0,13.4,1505.3,323.9,-0.7,1.8,2470.193,13.33,0.026,355.6
2020-03-21T01:49:03,42.805,6.029,-0.028,0.027,-0.032,104.0,111.0,100.0,13.4,1505.3,325.2,-0.7,1.9,2470.212,13.33,0.038,314.0
2020-03-21T01:52:03,42.805,6.029,-0.033,0.045,-0.069,104.0,108.0,102.0,13.4,1505.3,327.9,-0.7,1.8,2470.19,13.33,0.055,323.7
2020-03-21T01:55:03,42.805,6.029,-0.017,0.015,-0.058,105.0,108.0,102.0,13.4,1505.3,326.7,-0.7,1.8,2470.215,13.33,0.022,311.4
2020-03-21T01:58:03,42.805,6.029,-0.009,0.039,0.002,104.0,109.0,101.0,13.3,1505.3,326.8,-0.7,1.8,2470.209,13.33,0.04,347.0
2020-03-21T02:04:03,42.805,6.029,-0.036,0.035,-0.023,104.0,110.0,101.0,13.4,1505.3,327.1,-0.7,1.8,2470.248,13.31,0.05,314.2
2020-03-21T02:07:03,42.805,6.029,0.004,0.03,0.006,104.0,111.0,100.0,13.4,1505.3,326.6,-0.7,1.8,2470.25,13.32,0.03,7.6
2020-03-21T02:10:03,42.805,6.029,-0.023,0.041,-0.059,105.0,109.0,101.0,13.4,1505.3,327.6,-0.7,1.8,2470.194,13.32,0.047,330.7
2020-03-21T02:13:03,42.805,6.029,-0.034,0.042,-0.008,105.0,109.0,101.0,13.4,1505.3,323.8,-0.7,1.8,2470.232,13.32,0.054,321.0
2020-03-21T02:16:03,42.805,6.029,-0.02,0.03,-0.019,103.0,109.0,102.0,13.4,1505.3,326.7,-0.7,1.8,2470.279,13.33,0.036,326.3
2020-03-21T02:19:03,42.805,6.029,-0.045,0.043,-0.003,104.0,110.0,99.0,13.4,1505.3,324.2,-0.7,1.8,2470.247,13.33,0.062,313.7
2020-03-21T02:22:03,42.805,6.029,-0.013,0.04,-0.014,105.0,109.0,101.0,13.4,1505.3,326.6,-0.7,1.9,2470.213,13.33,0.042,342.0
2020-03-21T02:25:03,42.805,6.029,-0.023,0.036,-0.019,105.0,110.0,101.0,13.3,1505.3,327.1,-0.7,1.8,2470.245,13.33,0.042,327.4
2020-03-21T02:28:03,42.805,6.029,-0.033,0.028,-0.007,105.0,110.0,101.0,13.4,1505.3,325.9,-0.7,1.8,2470.238,13.33,0.043,310.3
2020-03-21T02:31:03,42.805,6.029,0.012,0.047,0.041,103.0,110.0,102.0,13.4,1505.3,322.8,-0.7,1.8,2470.237,13.33,0.048,14.3
2020-03-21T02:34:03,42.805,6.029,-0.016,0.032,0.0,105.0,109.0,100.0,13.3,1505.3,322.5,-0.7,1.8,2470.22,13.33,0.035,333.4
2020-03-21T02:37:03,42.805,6.029,-0.031,0.036,-0.026,106.0,111.0,101.0,13.4,1505.3,325.7,-0.7,1.8,2470.247,13.33,0.047,319.3
2020-03-21T02:40:03,42.805,6.029,-0.041,0.033,-0.042,104.0,110.0,101.0,13.4,1505.3,327.1,-0.7,1.8,2470.238,13.33,0.052,308.8
2020-03-21T02:43:03,42.805,6.029,-0.01,0.032,-0.042,105.0,111.0,101.0,13.4,1505.3,327.1,-0.7,1.8,2470.231,13.33,0.033,342.6
2020-03-21T02:46:03,42.805,6.029,-0.046,0.033,-0.075,105.0,112.0,101.0,13.3,1505.3,324.7,-0.7,1.8,2470.185,13.33,0.056,305.7
2020-03-21T02:49:03,42.805,6.029,-0.051,0.047,-0.046,105.0,111.0,101.0,13.4,1505.3,328.0,-0.8,1.9,2470.249,13.33,0.069,312.7
2020-03-21T02:52:03,42.805,6.029,0.0,0.042,-0.042,104.0,114.0,101.0,13.3,1505.3,324.5,-0.7,1.9,2470.247,13.33,0.042,0.0
2020-03-21T02:55:03,42.805,6.029,-0.031,0.036,-0.044,104.0,112.0,101.0,13.4,1505.3,324.1,-0.7,1.8,2470.232,13.33,0.047,319.3
2020-03-21T02:58:03,42.805,6.029,-0.012,0.043,-0.036,104.0,112.0,101.0,13.4,1505.3,328.1,-0.7,1.8,2470.253,13.33,0.044,344.4
2020-03-21T03:04:03,42.805,6.029,-0.046,0.034,-0.032,105.0,113.0,102.0,13.4,1505.3,323.9,-0.7,1.8,2470.281,13.31,0.057,306.5
2020-03-21T03:07:03,42.805,6.029,-0.008,0.048,-0.046,106.0,112.0,101.0,13.4,1505.3,327.3,-0.7,1.8,2470.282,13.32,0.048,350.5
2020-03-21T03:10:03,42.805,6.029,-0.014,0.053,-0.036,105.0,110.0,101.0,13.3,1505.3,326.5,-0.7,1.8,2470.256,13.33,0.054,345.2
2020-03-21T03:13:03,42.805,6.029,-0.026,0.017,-0.034,104.0,112.0,101.0,13.4,1505.3,325.8,-0.7,1.8,2470.279,13.33,0.031,303.2
2020-03-21T03:16:03,42.805,6.029,-0.029,0.043,-0.056,104.0,112.0,100.0,13.4,1505.3,325.8,-0.7,1.8,2470.28,13.33,0.051,326.0
2020-03-21T03:19:03,42.805,6.029,-0.015,0.032,-0.007,103.0,111.0,101.0,13.4,1505.3,326.1,-0.7,1.8,2470.278,13.33,0.035,334.9
2020-03-21T03:22:03,42.805,6.029,-0.016,0.007,-0.08,102.0,112.0,102.0,13.4,1505.3,323.6,-0.7,1.8,2470.287,13.33,0.017,293.6
2020-03-21T03:25:03,42.805,6.029,-0.043,0.03,-0.027,102.0,113.0,101.0,13.4,1505.3,325.3,-0.7,1.8,2470.271,13.33,0.052,304.9
2020-03-21T03:28:03,42.805,6.029,-0.049,0.04,-0.011,104.0,113.0,101.0,13.4,1505.3,324.2,-0.7,1.9,2470.291,13.33,0.063,309.2
2020-03-21T03:31:03,42.805,6.029,-0.03,0.04,-0.045,105.0,111.0,100.0,13.4,1505.3,325.0,-0.7,1.8,2470.312,13.33,0.05,323.1
2020-03-21T03:34:03,42.805,6.029,-0.034,0.022,-0.033,105.0,111.0,101.0,13.4,1505.3,324.1,-0.7,1.8,2470.29,13.33,0.04,302.9
2020-03-21T03:37:03,42.805,6.029,-0.009,0.031,-0.008,104.0,113.0,101.0,13.4,1505.3,324.6,-0.7,1.8,2470.298,13.33,0.032,343.8
2020-03-21T03:40:03,42.805,6.029,-0.01,0.041,-0.018,103.0,113.0,101.0,13.4,1505.3,323.7,-0.7,1.8,2470.272,13.33,0.042,346.3
2020-03-21T03:43:03,42.805,6.029,-0.041,0.032,-0.067,104.0,113.0,101.0,13.4,1505.3,323.5,-0.6,1.8,2470.28,13.33,0.052,308.0
2020-03-21T03:46:03,42.805,6.029,-0.023,0.016,-0.034,104.0,114.0,99.0,13.4,1505.3,328.0,-0.7,1.9,2470.336,13.33,0.028,304.8
2020-03-21T03:49:03,42.805,6.029,-0.007,0.034,0.0,105.0,113.0,101.0,13.4,1505.3,325.6,-0.7,1.8,2470.279,13.33,0.034,348.4
2020-03-21T03:52:03,42.805,6.029,-0.023,0.03,-0.017,104.0,113.0,101.0,13.3,1505.3,323.0,-0.7,1.8,2470.304,13.33,0.037,322.5
2020-03-21T03:55:03,42.805,6.029,-0.041,0.036,-0.065,104.0,113.0,101.0,13.4,1505.3,324.3,-0.7,1.9,2470.345,13.33,0.054,311.3
2020-03-21T03:58:03,42.805,6.029,-0.038,0.018,-0.035,105.0,113.0,100.0,13.4,1505.3,326.8,-0.7,1.8,2470.321,13.33,0.042,295.3
2020-03-21T04:04:03,42.805,6.029,-0.035,0.026,-0.036,105.0,111.0,102.0,13.4,1505.3,323.2,-0.7,1.8,2470.336,13.31,0.043,306.6
2020-03-21T04:07:03,42.805,6.029,-0.042,0.028,-0.01,104.0,112.0,102.0,13.3,1505.3,327.1,-0.7,1.9,2470.347,13.32,0.05,303.7
2020-03-21T04:10:03,42.805,6.029,-0.018,0.034,-0.059,105.0,111.0,100.0,13.4,1505.3,324.6,-0.7,1.8,2470.338,13.32,0.038,332.1
2020-03-21T04:13:03,42.805,6.029,-0.044,0.049,-0.022,105.0,112.0,102.0,13.3,1505.3,323.7,-0.7,1.8,2470.337,13.33,0.065,318.1
2020-03-21T04:16:03,42.805,6.029,-0.026,0.027,-0.02,105.0,112.0,101.0,13.4,1505.3,323.1,-0.7,1.8,2470.317,13.33,0.037,316.1
2020-03-21T04:19:03,42.805,6.029,-0.042,0.013,-0.019,103.0,112.0,101.0,13.4,1505.3,327.8,-0.7,1.8,2470.31,13.33,0.043,287.2
2020-03-21T04:22:03,42.805,6.029,-0.033,0.038,-0.064,103.0,112.0,102.0,13.3,1505.3,325.2,-0.7,1.8,2470.335,13.33,0.05,319.0
2020-03-21T04:25:03,42.805,6.029,-0.026,0.013,-0.008,103.0,112.0,101.0,13.3,1505.3,326.4,-0.7,1.8,2470.306,13.33,0.029,296.6
2020-03-21T04:28:03,42.805,6.029,-0.037,0.046,-0.038,103.0,113.0,100.0,13.3,1505.3,323.8,-0.7,1.8,2470.362,13.33,0.059,321.2
2020-03-21T04:31:03,42.805,6.029,-0.02,0.034,-0.028,103.0,113.0,101.0,13.4,1505.3,328.0,-0.7,1.9,2470.344,13.33,0.039,329.5
2020-03-21T04:34:03,42.805,6.029,-0.027,0.049,-0.022,103.0,113.0,100.0,13.4,1505.3,324.2,-0.7,1.8,2470.334,13.33,0.055,331.1
2020-03-21T04:37:03,42.805,6.029,-0.015,0.027,-0.03,104.0,113.0,101.0,13.4,1505.3,327.0,-0.7,1.8,2470.368,13.33,0.03,330.9
2020-03-21T04:40:03,42.805,6.029,-0.027,0.03,-0.062,105.0,113.0,100.0,13.4,1505.3,324.5,-0.7,1.8,2470.337,13.33,0.04,318.0
2020-03-21T04:43:03,42.805,6.029,-0.042,0.032,-0.023,103.0,112.0,101.0,13.4,1505.3,324.0,-0.7,1.8,2470.31,13.33,0.052,307.3
2020-03-21T04:46:03,42.805,6.029,-0.024,0.032,-0.029,102.0,113.0,101.0,13.4,1505.3,324.7,-0.7,1.9,2470.322,13.33,0.04,323.1
2020-03-21T04:49:03,42.805,6.029,-0.016,0.041,-0.019,102.0,112.0,100.0,13.4,1505.3,328.5,-0.7,1.8,2470.336,13.33,0.044,338.7
2020-03-21T04:52:03,42.805,6.029,-0.018,0.023,-0.042,104.0,113.0,101.0,13.4,1505.3,324.9,-0.7,1.8,2470.365,13.33,0.029,322.0
2020-03-21T04:55:03,42.805,6.029,-0.015,0.022,-0.027,105.0,112.0,101.0,13.4,1505.4,327.0,-0.7,1.8,2470.334,13.34,0.026,325.7
2020-03-21T04:58:03,42.805,6.029,-0.036,0.04,-0.05,103.0,112.0,101.0,13.3,1505.4,325.9,-0.7,1.8,2470.309,13.34,0.053,318.0
2020-03-21T05:04:03,42.805,6.029,-0.027,0.036,-0.05,103.0,113.0,101.0,13.4,1505.3,324.2,-0.7,1.8,2470.385,13.32,0.045,323.1
2020-03-21T05:07:03,42.805,6.029,-0.008,0.014,-0.049,102.0,113.0,101.0,13.4,1505.3,328.2,-0.8,1.8,2470.394,13.32,0.016,330.3
2020-03-21T05:10:03,42.805,6.029,-0.015,0.03,-0.025,102.0,111.0,101.0,13.3,1505.3,324.9,-0.7,1.8,2470.408,13.33,0.033,333.4
2020-03-21T05:13:03,42.805,6.029,-0.032,0.033,-0.031,103.0,111.0,102.0,13.3,1505.3,324.5,-0.7,1.9,2470.382,13.33,0.045,315.9
2020-03-21T05:16:03,42.805,6.029,-0.029,0.023,-0.061,104.0,111.0,101.0,13.4,1505.3,325.9,-0.7,1.8,2470.364,13.33,0.037,308.4
2020-03-21T05:19:03,42.805,6.029,-0.023,0.025,-0.036,103.0,113.0,99.0,13.4,1505.3,324.8,-0.7,1.9,2470.387,13.33,0.033,317.4
2020-03-21T05:22:03,42.805,6.029,-0.015,0.047,0.001,104.0,111.0,100.0,13.4,1505.3,323.6,-0.7,1.8,2470.367,13.33,0.049,342.3
2020-03-21T05:25:03,42.805,6.029,-0.028,0.029,-0.016,103.0,113.0,101.0,13.4,1505.3,323.0,-0.7,1.9,2470.346,13.33,0.04,316.0
2020-03-21T05:28:03,42.805,6.029,-0.032,0.039,-0.032,104.0,109.0,101.0,13.4,1505.4,324.7,-0.7,1.8,2470.327,13.34,0.05,320.6
2020-03-21T05:31:03,42.805,6.029,-0.001,0.018,-0.016,103.0,110.0,101.0,13.4,1505.4,327.5,-0.7,1.8,2470.373,13.34,0.018,356.8
2020-03-21T05:34:03,42.805,6.029,-0.051,0.025,-0.072,104.0,112.0,101.0,13.4,1505.4,326.1,-0.7,1.8,2470.374,13.34,0.056,296.1
2020-03-21T05:37:03,42.805,6.029,-0.038,0.027,-0.043,106.0,112.0,102.0,13.4,1505.4,324.7,-0.7,1.8,2470.326,13.34,0.046,305.4
2020-03-21T05:40:03,42.805,6.029,-0.017,0.019,-0.058,103.0,112.0,102.0,13.3,1505.4,325.9,-0.7,1.8,2470.366,13.34,0.025,318.2
2020-03-21T05:43:03,42.805,6.029,-0.001,0.049,-0.022,104.0,111.0,101.0,13.4,1505.4,325.8,-0.7,1.8,2470.341,13.34,0.049,358.8
2020-03-21T05:46:03,42.805,6.029,-0.027,0.034,-0.033,103.0,112.0,101.0,13.4,1505.4,324.0,-0.7,1.8,2470.322,13.34,0.043,321.5
2020-03-21T05:49:03,42.805,6.029,-0.028,0.028,-0.019,103.0,110.0,102.0,13.3,1505.4,327.9,-0.7,1.8,2470.329,13.34,0.039,315.0
2020-03-21T05:52:03,42.805,6.029,-0.024,0.028,-0.012,104.0,111.0,100.0,13.4,1505.4,324.6,-0.7,1.8,2470.372,13.34,0.036,319.4
2020-03-21T05:55:03,42.805,6.029,-0.029,0.021,-0.071,103.0,111.0,101.0,13.4,1505.4,326.2,-0.7,1.9,2470.338,13.34,0.035,305.9
2020-03-21T05:58:03,42.805,6.029,-0.038,0.041,-0.04,104.0,111.0,101.0,13.4,1505.4,324.3,-0.7,1.8,2470.328,13.34,0.055,317.2
2020-03-21T06:04:03,42.805,6.029,-0.008,0.024,-0.003,105.0,110.0,101.0,13.4,1505.3,326.7,-0.7,1.8,2470.38,13.32,0.025,341.6
2020-03-21T06:07:03,42.805,6.029,-0.021,0.019,-0.056,103.0,112.0,102.0,13.3,1505.3,324.5,-0.7,1.9,2470.361,13.33,0.028,312.1
2020-03-21T06:10:03,42.805,6.029,-0.032,0.038,-0.072,103.0,112.0,100.0,13.3,1505.3,324.9,-0.7,1.8,2470.354,13.33,0.049,319.9
2020-03-21T06:13:03,42.805,6.029,-0.02,0.023,-0.037,105.0,110.0,101.0,13.3,1505.3,323.6,-0.7,1.8,2470.385,13.33,0.03,319.0
2020-03-21T06:16:03,42.805,6.029,-0.005,0.015,-0.05,106.0,112.0,102.0,13.3,1505.3,324.4,-0.7,1.8,2470.346,13.33,0.015,341.6
2020-03-21T06:19:03,42.805,6.029,-0.002,0.023,-0.044,106.0,111.0,101.0,13.3,1505.3,324.3,-0.6,1.8,2470.37,13.33,0.023,355.0
2020-03-21T06:22:03,42.805,6.029,0.004,0.019,-0.021,104.0,110.0,102.0,13.4,1505.4,326.0,-0.7,1.8,2470.378,13.34,0.019,11.9
2020-03-21T06:25:03,42.805,6.029,0.001,0.034,-0.049,104.0,111.0,102.0,13.4,1505.4,326.1,-0.7,1.8,2470.394,13.34,0.034,1.7
2020-03-21T06:28:03,42.805,6.029,0.003,0.017,-0.019,105.0,112.0,101.0,13.4,1505.4,324.1,-0.7,1.8,2470.335,13.34,0.017,10.0
2020-03-21T06:31:03,42.805,6.029,-0.01,0.019,-0.063,103.0,111.0,101.0,13.4,1505.4,325.4,-0.7,1.9,2470.368,13.34,0.021,332.2
2020-03-21T06:34:03,42.805,6.029,-0.018,0.045,-0.029,104.0,111.0,100.0,13.4,1505.4,326.0,-0.7,1.8,2470.319,13.34,0.048,338.2
2020-03-21T06:37:03,42.805,6.029,-0.007,0.021,-0.031,104.0,111.0,100.0,13.3,1505.4,326.7,-0.7,1.9,2470.335,13.34,0.022,341.6
2020-03-21T06:40:03,42.805,6.029,-0.014,0.04,-0.02,105.0,111.0,100.0,13.3,1505.4,327.2,-0.7,1.8,2470.341,13.34,0.042,340.7
2020-03-21T06:43:03,42.805,6.029,-0.017,0.022,-0.026,105.0,111.0,100.0,13.3,1505.4,325.6,-0.7,1.8,2470.336,13.34,0.027,322.3
2020-03-21T06:46:03,42.805,6.029,-0.017,0.038,0.012,105.0,111.0,101.0,13.4,1505.4,328.1,-0.7,1.8,2470.355,13.34,0.041,335.9
2020-03-21T06:49:03,42.805,6.029,-0.007,0.036,-0.035,104.0,110.0,102.0,13.4,1505.4,326.5,-0.7,1.8,2470.346,13.34,0.036,349.0
2020-03-21T06:52:03,42.805,6.029,-0.012,0.024,0.032,105.0,111.0,103.0,13.3,1505.4,327.7,-0.7,1.8,2470.37,13.34,0.026,333.4
2020-03-21T06:55:03,42.805,6.029,0.003,0.02,-0.015,104.0,112.0,101.0,13.4,1505.4,323.8,-0.7,1.8,2470.337,13.34,0.02,8.5
2020-03-21T06:58:03,42.805,6.029,-0.007,0.038,-0.029,104.0,112.0,102.0,13.4,1505.4,325.4,-0.7,1.8,2470.333,13.34,0.038,349.6
2020-03-21T07:04:03,42.805,6.029,-0.009,0.026,-0.051,103.0,110.0,100.0,13.4,1505.3,326.4,-0.8,1.8,2470.393,13.32,0.027,340.9
2020-03-21T07:07:03,42.805,6.029,-0.012,0.035,-0.034,103.0,111.0,101.0,13.4,1505.3,327.4,-0.7,1.8,2470.359,13.32,0.037,341.1
2020-03-21T07:10:03,42.805,6.029,-0.032,0.036,-0.027,104.0,112.0,102.0,13.4,1505.3,324.3,-0.7,1.8,2470.394,13.33,0.048,318.4
2020-03-21T07:13:03,42.805,6.029,-0.004,0.017,0.017,105.0,112.0,101.0,13.4,1505.3,326.0,-0.7,1.8,2470.334,13.33,0.017,346.8
2020-03-21T07:16:03,42.805,6.029,0.005,0.016,-0.006,104.0,111.0,101.0,13.4,1505.3,324.2,-0.7,1.8,2470.33,13.33,0.016,17.4
2020-03-21T07:19:03,42.805,6.029,-0.003,0.034,-0.015,105.0,111.0,101.0,13.3,1505.3,328.1,-0.7,1.8,2470.332,13.33,0.034,355.0
2020-03-21T07:22:03,42.805,6.029,-0.002,0.032,-0.029,104.0,112.0,102.0,13.4,1505.4,325.8,-0.7,1.8,2470.347,13.34,0.032,356.4
2020-03-21T07:25:03,42.805,6.029,0.003,0.03,-0.019,105.0,110.0,101.0,13.4,1505.4,326.2,-0.7,1.8,2470.347,13.34,0.03,5.7
2020-03-21T07:28:03,42.805,6.029,-0.018,0.029,-0.052,104.0,111.0,100.0,13.4,1505.4,323.5,-0.7,1.8,2470.353,13.34,0.034,328.2
2020-03-21T07:31:03,42.805,6.029,-0.02,0.022,-0.018,105.0,111.0,100.0,13.3,1505.4,327.1,-0.7,1.8,2470.346,13.34,0.029,317.7
2020-03-21T07:34:03,42.805,6.029,-0.004,0.029,-0.038,105.0,111.0,102.0,13.4,1505.4,328.4,-0.7,1.8,2470.368,13.34,0.029,352.2
2020-03-21T07:37:03,42.805,6.029,-0.017,0.021,-0.015,104.0,111.0,100.0,13.4,1505.4,325.3,-0.7,1.8,2470.324,13.34,0.027,321.0
2020-03-21T07:40:03,42.805,6.029,0.007,0.03,-0.035,105.0,110.0,101.0,13.4,1505.4,326.7,-0.7,1.9,2470.318,13.34,0.03,13.1
2020-03-21T07:43:03,42.805,6.029,-0.018,0.017,-0.055,104.0,111.0,100.0,13.4,1505.4,322.7,-0.7,1.8,2470.33,13.34,0.024,313.4
2020-03-21T07:46:03,42.805,6.029,-0.009,0.019,-0.057,104.0,111.0,102.0,13.4,1505.4,324.8,-0.7,1.9,2470.374,13.34,0.021,334.7
2020-03-21T07:49:03,42.805,6.029,-0.008,0.014,-0.061,105.0,111.0,101.0,13.4,1505.4,323.0,-0.7,1.8,2470.373,13.34,0.016,330.3
2020-03-21T07:52:03,42.805,6.029,0.006,0.011,-0.022,104.0,110.0,101.0,13.4,1505.4,326.8,-0.7,1.8,2470.348,13.34,0.012,28.6
2020-03-21T07:55:03,42.805,6.029,0.003,0.04,-0.044,104.0,110.0,101.0,13.4,1505.4,323.7,-0.7,1.8,2470.314,13.34,0.04,4.3
2020-03-21T07:58:03,42.805,6.029,-0.022,0.018,-0.079,104.0,110.0,101.0,13.3,1505.4,327.9,-0.7,1.8,2470.297,13.34,0.028,309.3
2020-03-21T08:04:03,42.805,6.029,0.004,0.029,-0.064,107.0,112.0,101.0,13.3,1505.3,324.8,-0.7,1.8,2470.373,13.32,0.029,7.8
2020-03-21T08:07:03,42.805,6.029,-0.009,0.026,-0.029,103.0,111.0,101.0,13.4,1505.3,323.3,-0.7,1.8,2470.302,13.33,0.027,340.9
2020-03-21T08:10:03,42.805,6.029,-0.017,0.028,-0.044,105.0,111.0,100.0,13.4,1505.3,324.9,-0.7,1.8,2470.39,13.33,0.032,328.7
2020-03-21T08:13:03,42.805,6.029,0.003,0.041,0.009,105.0,110.0,101.0,13.4,1505.3,328.8,-0.7,1.9,2470.3,13.33,0.041,4.2
2020-03-21T08:16:03,42.805,6.029,-0.031,0.016,-0.048,104.0,111.0,101.0,13.4,1505.4,324.7,-0.7,1.8,2470.37,13.34,0.034,297.3
2020-03-21T08:19:03,42.805,6.029,-0.016,0.009,-0.027,104.0,110.0,101.0,13.4,1505.4,325.1,-0.7,1.8,2470.347,13.34,0.018,299.4
2020-03-21T08:22:03,42.805,6.029,0.014,0.043,-0.039,103.0,110.0,102.0,13.4,1505.4,322.9,-0.7,1.8,2470.357,13.34,0.045,18.0
2020-03-21T08:25:03,42.805,6.029,-0.02,0.047,-0.091,105.0,109.0,101.0,13.4,1505.4,326.4,-0.7,1.9,2470.334,13.34,0.051,337.0
2020-03-21T08:28:03,42.805,6.029,-0.008,0.026,-0.036,103.0,111.0,101.0,13.4,1505.4,326.3,-0.7,1.9,2470.324,13.34,0.027,342.9
2020-03-21T08:31:03,42.805,6.029,0.007,0.038,0.0,106.0,110.0,100.0,13.4,1505.4,324.8,-0.7,1.8,2470.31,13.34,0.038,10.4
2020-03-21T08:34:03,42.805,6.029,0.001,0.033,-0.033,104.0,110.0,101.0,13.4,1505.4,323.8,-0.7,1.8,2470.306,13.34,0.033,1.7
2020-03-21T08:37:03,42.805,6.029,-0.008,0.016,-0.033,104.0,110.0,101.0,13.4,1505.4,328.4,-0.7,1.8,2470.306,13.34,0.017,333.4
2020-03-21T08:40:03,42.805,6.029,-0.02,0.031,-0.011,103.0,110.0,101.0,13.4,1505.4,326.2,-0.7,1.8,2470.314,13.34,0.036,327.2
2020-03-21T08:43:03,42.805,6.029,-0.025,0.023,-0.027,103.0,111.0,100.0,13.4,1505.4,324.7,-0.7,1.8,2470.293,13.34,0.033,312.6
2020-03-21T08:46:03,42.805,6.029,-0.023,0.023,-0.048,107.0,110.0,101.0,13.3,1505.4,325.9,-0.7,1.8,2470.301,13.34,0.032,315.0
2020-03-21T08:49:03,42.805,6.029,-0.03,0.04,-0.045,104.0,110.0,101.0,13.3,1505.4,323.6,-0.7,1.9,2470.315,13.34,0.05,323.1
2020-03-21T08:52:03,42.805,6.029,0.001,0.028,-0.037,106.0,110.0,100.0,13.3,1505.4,327.3,-0.7,1.8,2470.273,13.34,0.028,2.0
2020-03-21T08:55:03,42.805,6.029,-0.01,0.035,-0.035,104.0,111.0,100.0,13.4,1505.4,326.3,-0.7,1.8,2470.329,13.34,0.036,344.1
2020-03-21T08:58:03,42.805,6.029,-0.001,0.018,-0.035,106.0,108.0,101.0,13.4,1505.4,324.0,-0.7,1.8,2470.293,13.34,0.018,356.8
2020-03-21T09:04:03,42.805,6.029,-0.015,0.025,-0.016,103.0,111.0,101.0,13.4,1505.3,325.8,-0.7,1.8,2470.327,13.33,0.029,329.0
2020-03-21T09:07:03,42.805,6.029,-0.013,0.012,-0.024,104.0,110.0,100.0,13.4,1505.3,327.5,-0.7,1.9,2470.328,13.33,0.017,312.7
2020-03-21T09:10:03,42.805,6.029,-0.008,0.031,-0.029,103.0,110.0,100.0,13.3,1505.3,327.6,-0.7,1.8,2470.296,13.33,0.032,345.5
2020-03-21T09:13:03,42.805,6.029,-0.01,0.03,-0.003,104.0,110.0,101.0,13.3,1505.4,326.3,-0.7,1.8,2470.31,13.34,0.031,341.6
2020-03-21T09:16:03,42.805,6.029,0.011,0.011,-0.053,103.0,110.0,103.0,13.4,1505.4,324.7,-0.7,1.8,2470.309,13.34,0.015,45.0
2020-03-21T09:19:03,42.805,6.029,-0.004,0.028,-0.001,104.0,111.0,103.0,13.3,1505.4,328.4,-0.7,1.8,2470.301,13.34,0.028,351.9
2020-03-21T09:22:03,42.805,6.029,-0.009,0.019,-0.031,105.0,111.0,102.0,13.4,1505.4,327.6,-0.7,1.8,2470.277,13.34,0.021,334.7
2020-03-21T09:25:03,42.805,6.029,-0.015,0.018,-0.052,102.0,110.0,101.0,13.4,1505.4,325.0,-0.7,1.8,2470.296,13.34,0.023,320.2
2020-03-21T09:28:03,42.805,6.029,-0.001,0.008,-0.018,107.0,109.0,101.0,13.4,1505.4,322.9,-0.7,1.8,2470.295,13.35,0.008,352.9
2020-03-21T09:31:03,42.805,6.029,0.001,0.028,-0.068,103.0,109.0,100.0,13.3,1505.4,327.2,-0.7,1.8,2470.246,13.35,0.028,2.0
2020-03-21T09:34:03,42.805,6.029,-0.003,0.013,-0.036,104.0,109.0,100.0,13.3,1505.4,326.0,-0.7,1.8,2470.282,13.35,0.013,347.0
2020-03-21T09:37:03,42.805,6.029,-0.001,0.037,-0.028,104.0,109.0,102.0,13.4,1505.4,326.8,-0.7,1.9,2470.221,13.35,0.037,358.5
2020-03-21T09:40:03,42.805,6.029,-0.013,0.018,-0.05,104.0,110.0,101.0,13.4,1505.4,324.2,-0.7,1.8,2470.262,13.35,0.022,324.2
2020-03-21T09:43:03,42.805,6.029,-0.008,0.04,-0.049,103.0,110.0,100.0,13.4,1505.4,324.4,-0.7,1.8,2470.263,13.35,0.04,348.7
2020-03-21T09:46:03,42.805,6.029,-0.011,0.025,-0.026,103.0,109.0,101.0,13.4,1505.4,324.8,-0.7,1.8,2470.235,13.35,0.027,336.3
2020-03-21T09:49:03,42.805,6.029,0.004,0.022,-0.007,104.0,110.0,101.0,13.4,1505.4,327.4,-0.7,1.8,2470.272,13.35,0.022,10.3
2020-03-21T09:52:03,42.805,6.029,-0.005,0.031,-0.009,103.0,111.0,102.0,13.4,1505.4,325.0,-0.7,1.8,2470.21,13.35,0.031,350.8
2020-03-21T09:55:03,42.805,6.029,-0.037,0.014,-0.074,103.0,110.0,101.0,13.4,1505.4,324.9,-0.7,1.8,2470.227,13.35,0.039,290.7